Tracking 29487 objects as of 11-Sep-2024
HD Live streaming from Space Station
objects crossing your sky now

FENGYUN 1C DEB

Track FENGYUN 1C DEB now!
10-day predictions


NORAD ID: 32316
Int'l Code: 1999-025CXH
Perigee: 732.3 km
Apogee: 773.8 km
Inclination: 99.5 °
Period: 99.7 minutes
Semi major axis: 7124 km
RCS: 0.0087 m2 (small)
Launch date: May 10, 1999
Source: People's Republic of China (PRC)
Launch site: Taiyaun Space Center, China (TSC)

Note: This is SATELLITE DEBRIS
Your satellite tracking list
Your tracking list is empty




NASA's NSSDC Master Catalog

Two Line Element Set (TLE):
1 32316U 99025CXH 24253.75901918  .00019138  00000-0  55903-2 0  9992
2 32316  99.5193 215.6275 0029148 247.9891 230.5651 14.43821588891324
Source of the keplerian elements: AFSPC